Location: Newark
(42.9858°N, 0.6717°E)
Time: 06:23:47
(UTC+00:00)

Explorer 7 - All Passes

Search period start: 18 November 2019 00:00
Search period end: 28 November 2019 00:00
Orbit: 485 x 680 km, 50.3° (Epoch: 17 November)

Date Brightness Start Highest point End Pass type
(mag) Time Alt. Az. Time Alt. Az. Time Alt. Az.
18 Nov - 00:39:28 10° WSW 00:44:05 88° SSE 00:48:27 10° ENE night (unlit)
18 Nov - 02:20:54 10° W 02:25:00 35° NNW 02:28:53 10° NE night (unlit)
18 Nov - 04:02:28 10° NW 04:06:18 31° N 04:09:56 10° ENE visible
18 Nov - 05:43:10 10° WNW 05:47:16 77° NNE 05:51:09 10° ESE visible
18 Nov - 07:24:32 10° W 07:27:21 19° SW 07:30:05 10° S daylight
18 Nov - 23:04:36 10° SSW 23:08:41 30° SE 23:12:37 10° ENE night (unlit)
19 Nov - 00:44:28 10° WSW 00:49:05 67° NNW 00:53:25 10° ENE night (unlit)
19 Nov - 02:26:11 10° WNW 02:30:10 31° N 02:33:56 10° ENE night (unlit)
19 Nov - 04:07:30 10° NW 04:11:28 36° NNE 04:15:12 10° E visible
19 Nov - 05:48:10 10° WNW 05:52:14 70° SW 05:56:05 10° SE visible
19 Nov - 07:30:51 10° WSW 07:32:02 11° SW 07:33:13 10° SSW daylight
19 Nov - 23:09:01 10° SSW 23:13:32 45° SE 23:17:50 10° ENE night (unlit)
20 Nov - 00:49:38 10° W 00:54:08 50° NNW 00:58:22 10° NE night (unlit)
20 Nov - 02:31:25 10° WNW 02:35:21 30° N 02:39:04 10° ENE night (unlit)
20 Nov - 04:12:29 10° NW 04:16:36 45° NNE 04:20:26 10° E visible
20 Nov - 05:53:14 10° WNW 05:57:08 43° SW 06:00:48 10° SSE visible
20 Nov - 21:35:51 10° SSE 21:38:23 14° SE 21:40:52 10° E night (unlit)
20 Nov - 23:13:43 10° SW 23:18:25 69° SE 23:22:53 10° ENE night (unlit)
21 Nov - 00:54:53 10° W 00:59:14 40° NNW 01:03:20 10° NE night (unlit)
21 Nov - 02:36:36 10° WNW 02:40:32 31° N 02:44:16 10° ENE visible
21 Nov - 04:17:27 10° WNW 04:21:40 61° NNE 04:25:36 10° ESE visible
21 Nov - 05:58:28 10° WNW 06:01:56 27° SW 06:05:14 10° SSE visible
21 Nov - 21:39:23 10° S 21:43:06 23° SE 21:46:44 10° E night (unlit)
21 Nov - 23:18:37 10° WSW 23:23:23 83° NNW 23:27:53 10° ENE night (unlit)
22 Nov - 01:00:10 10° WNW 01:04:23 34° N 01:08:21 10° NE night (unlit)
22 Nov - 02:41:41 10° NW 02:45:43 34° N 02:49:31 10° ENE visible
22 Nov - 04:22:24 10° WNW 04:26:40 87° NE 04:30:38 10° ESE visible
22 Nov - 06:04:02 10° W 06:06:39 17° SW 06:09:11 10° S visible
22 Nov - 21:43:32 10° SSW 21:47:54 35° SE 21:52:06 10° ENE night (unlit)
22 Nov - 23:23:41 10° WSW 23:28:23 61° NNW 23:32:50 10° ENE night (unlit)
23 Nov - 01:05:26 10° WNW 01:09:33 32° N 01:13:26 10° ENE night (unlit)
23 Nov - 02:46:42 10° NW 02:50:52 40° NNE 02:54:46 10° E visible
23 Nov - 04:27:25 10° WNW 04:31:35 61° SW 04:35:30 10° SE visible
23 Nov - 20:12:12 10° SE 20:12:53 10° SE 20:13:34 10° ESE night (unlit)
23 Nov - 21:48:03 10° SW 21:52:45 53° SE 21:57:15 10° ENE night (unlit)
23 Nov - 23:28:53 10° W 23:33:27 47° NNW 23:37:47 10° NE night (unlit)
24 Nov - 01:10:39 10° WNW 01:14:44 31° N 01:18:36 10° ENE night (unlit)
24 Nov - 02:51:41 10° NW 02:55:58 50° NNE 02:59:58 10° E visible
24 Nov - 04:32:31 10° WNW 04:36:26 38° SW 04:40:08 10° SSE visible
24 Nov - 20:14:26 10° S 20:17:33 17° SE 20:20:38 10° E night (unlit)
24 Nov - 21:52:50 10° SW 21:57:40 78° SSE 22:02:17 10° ENE night (unlit)
24 Nov - 23:34:08 10° W 23:38:34 39° NNW 23:42:46 10° NE night (unlit)
25 Nov - 01:15:48 10° WNW 01:19:55 32° N 01:23:49 10° ENE night (unlit)
25 Nov - 02:56:38 10° WNW 03:01:02 69° NNE 03:05:06 10° ESE night (unlit)
25 Nov - 04:37:49 10° W 04:41:13 24° SW 04:44:28 10° S visible
25 Nov - 20:18:14 10° SSW 20:22:17 27° SE 20:26:15 10° E night (unlit)
25 Nov - 21:57:47 10° WSW 22:02:38 76° NNW 22:07:15 10° ENE night (unlit)
25 Nov - 23:39:24 10° WNW 23:43:43 34° N 23:47:49 10° ENE night (unlit)
26 Nov - 01:20:52 10° NW 01:25:06 36° NNE 01:29:04 10° E night (unlit)
26 Nov - 03:01:37 10° WNW 03:06:00 83° SW 03:10:05 10° SE night (unlit)
26 Nov - 04:43:32 10° W 04:45:55 15° SW 04:48:13 10° SSW visible
26 Nov - 20:22:31 10° SSW 20:27:05 40° SE 20:31:31 10° ENE night (unlit)
26 Nov - 22:02:54 10° WSW 22:07:39 57° NNW 22:12:12 10° NE night (unlit)
26 Nov - 23:44:39 10° WNW 23:48:53 32° N 23:52:55 10° ENE night (unlit)
27 Nov - 01:25:53 10° NW 01:30:14 43° NNE 01:34:18 10° E night (unlit)
27 Nov - 03:06:38 10° WNW 03:10:54 54° SW 03:14:53 10° SE night (unlit)
27 Nov - 18:49:58 10° SSE 18:52:01 13° SE 18:54:03 10° ESE visible
27 Nov - 20:27:08 10° SW 20:31:56 61° SE 20:36:37 10° ENE night (unlit)
27 Nov - 22:08:06 10° W 22:12:44 45° NNW 22:17:10 10° NE night (unlit)
27 Nov - 23:49:51 10° WNW 23:54:05 32° N 23:58:06 10° ENE night (unlit)
